Location: Elbart
(49.6135°N, 11.9134°E)
Time: 05:29:05
(UTC+00:00)

Cosmos 2151 - Pass Details

Date: 09 April 2020
Orbit: 582 x 600 km, 82.5° (Epoch: 01 June)

Event Time Altitude Azimuth Distance (km) Brightness Sun altitude
Rises 21:01:15 0° 344° (NNW) 2,819 7.6 -25.6°
Reaches altitude 10° 21:03:31 10° 338° (NNW) 1,914 6.5 -25.8°
Maximum altitude 21:07:30 42° 267° (W) 840 3.9 -26.2°
Enters shadow 21:07:32 42° 266° (W) 840 3.9 -26.2°
